Regional Weather Roundup
Issued by NWS

Home | Current Version | Previous Version | Graphics & Text | Print | Product List | Glossary On
Versions: 1 2 3 4 5 6 7 8 9 10 11 12 13 14 15 16 17 18 19 20 21 22 23 24 25 26 27 28 29 30 31 32 33 34 35 36 37 38 39 40 41 42 43 44 45 46 47 48 49 50
491
ASUS45 KABQ 201201
RWRNM
NEW MEXICO REGIONAL WEATHER ROUNDUP
NATIONAL WEATHER SERVICE ALBUQUERQUE NM
500 AM MST MON FEB 20 2017

NOTE: "FAIR" MEANS FEW OR NO CLOUDS BELOW 12,000 FEET AGL WITH NO
       SIGNIFICANT WEATHER OR OBSTRUCTIONS TO VISION.

      THIS PRODUCT IS RELEASED AS TWO VERSIONS.  ONE VERSION NEAR
      THE TOP OF THE HOUR CONTAINING PRELIMINARY DATA FROM ALBUQUERQUE
      AND OTHER STATIONS.  A FINAL VERSION WITH ADDITIONAL DATA IS
      ISSUED ABOUT 10 MINUTES AFTER THE HOUR.

NMZ501-503-504-510>518-201300-
NORTHWEST PLATEAU/NORTHCENTRAL MOUNTAINS

CITY           SKY/WX    TMP DP  RH WIND       PRES   REMARKS
FARMINGTON     FAIR      35  33  92 W13       30.07R WCI  26
6HR MIN TEMP:  35; 6HR MAX TEMP:  39; 6HR PCP:  0.01;

LOS ALAMOS     FAIR      33  29  85 CALM      30.05S
SANTA FE       FAIR      29  26  89 N7        30.03R WCI  22
6HR MIN TEMP:  29; 6HR MAX TEMP:  37;

TAOS           FAIR      28  21  74 CALM      30.05R
ANGEL FIRE     FAIR      30  23  77 W22G28    30.01R WCI  16

$$
NMZ402-403-502-505>509-201300-
WESTCENTRAL MOUNTAINS/SOUTHWEST MOUNTAINS

CITY           SKY/WX    TMP DP  RH WIND       PRES   REMARKS
GALLUP         CLOUDY    35  33  92 SW8       30.17R WCI  29
6HR MIN TEMP:  34; 6HR MAX TEMP:  36; 6HR PCP:  0.01;

GRANTS         MOCLDY    36  29  74 N9        30.13R WCI  29
SILVER CITY    FAIR      35  32  90 W7        30.13R WCI  29

$$
NMZ407-409-411-412-201300-
SOUTHERN DESERTS

CITY           SKY/WX    TMP DP  RH WIND       PRES   REMARKS
DEMING         FAIR      41  36  82 CALM      30.14R
6HR MIN TEMP:  41; 6HR MAX TEMP:  45;

LAS CRUCES     FAIR      40  37  86 W16       30.11R WCI  32
HOLLOMAN AFB   FAIR      34  29  80 NE6       30.09R WCI  29
ALAMOGORDO     FAIR      39  28  65 NE10      30.06R WCI  32
T OR C         FAIR      43  30  60 NW17      30.07R
6HR MIN TEMP:  39; 6HR MAX TEMP:  46;


$$
NMZ519>523-201300-
CENTRAL VALLEYS/CENTRAL HIGHLANDS

CITY           SKY/WX    TMP DP  RH WIND       PRES   REMARKS
ALBUQUERQUE    CLOUDY    42  33  70 W3        30.07R
6HR MIN TEMP:  40; 6HR MAX TEMP:  43;

DOUBLE EAGLE   MOCLDY    36  32  85 W6        30.08R WCI  31
MORIARTY ARPT  MOCLDY    40  32  73 W14       30.04S WCI  33
6HR MIN TEMP:  36; 6HR MAX TEMP:  40;

CLINES CORNERS FAIR      32  29  88 NW23      30.01R WCI  19
6HR MIN TEMP:  32; 6HR MAX TEMP:  33;

BELEN          FAIR      38  31  76 W10       30.08R WCI  31
6HR MIN TEMP:  37; 6HR MAX TEMP:  43;

SOCORRO        FAIR      43  30  60 N6G21     30.07R
6HR MIN TEMP:  38; 6HR MAX TEMP:  45;


$$
NMZ524>526-539-540-201300-
SOUTHCENTRAL MOUNTAINS

CITY           SKY/WX    TMP DP  RH WIND       PRES   REMARKS
RUIDOSO        NOT AVBL

$$
NMZ527>531-201300-
NORTHEAST HIGHLANDS/NORTHEAST PLAINS

CITY           SKY/WX    TMP DP  RH WIND       PRES   REMARKS
LAS VEGAS      FAIR      35  22  58 NE8       29.95R WCI  29
6HR MIN TEMP:  28; 6HR MAX TEMP:  37;

RATON          FAIR      32  18  56 E5        29.92R WCI  27
6HR MIN TEMP:  25; 6HR MAX TEMP:  38;

CLAYTON        FAIR      46  36  68 N29G39    29.86R
6HR MIN TEMP:  34; 6HR MAX TEMP:  46;


$$
NMZ532>537-201300-
EASTCENTRAL PLAINS

CITY           SKY/WX    TMP DP  RH WIND       PRES   REMARKS
TUCUMCARI      FAIR      41  32  70 W13       29.87R
6HR MIN TEMP:  41; 6HR MAX TEMP:  48;

CANNON AFB     FAIR      36  36 100 W9        29.89R WCI  29
6HR MIN TEMP:  30; 6HR MAX TEMP:  43;

CLOVIS AIRPORT FAIR      36  28  75 W13       29.88R WCI  27

$$
NMZ028-029-538-201300-
SOUTHEAST PLAINS

CITY           SKY/WX    TMP DP  RH WIND       PRES   REMARKS
ROSWELL        FAIR      35  28  75 W10         N/A  WCI  27
6HR MIN TEMP:  30; 6HR MAX TEMP:  44;

ARTESIA        FAIR      43  32  65 SW16      29.99R
CARLSBAD       FAIR      50  34  54 W22G30    29.98R
6HR MIN TEMP:  45; 6HR MAX TEMP:  53;

HOBBS          FAIR      43  30  61 W15       29.97R


$$




USA.gov is the U.S. government's official web portal to all federal, state and local government web resources and services.